Location: Briis
(48.6240°N, 2.1211°E)
Time: 06:55:09
(UTC+00:00)

Meteor 2-9 Rocket - Pass Details

Date: 25 September 2020
Orbit: 791 x 896 km, 81.3° (Epoch: 19 October)

Event Time Altitude Azimuth Distance (km) Brightness Sun altitude
Rises 04:42:38 0° 347° (NNW) 3,391 7.3 -10.7°
Reaches altitude 10° 04:45:04 10° 348° (NNW) 2,438 6.6 -10.3°
Maximum altitude 04:50:35 87° 261° (W) 818 4.1 -9.4°
Drops below altitude 10° 04:55:55 10° 172° (S) 2,366 6.6 -8.6°
Sets 04:58:16 0° 172° (S) 3,284 7.3 -8.2°
